Radiation Dose at Monitoring Post of Fukushima Daini Nuclear Power Station
Date,Time,MP-1(microSv/h),MP-2(microSv/h),MP-3(microSv/h),MP-4(microSv/h),MP-5(microSv/h),MP-6(microSv/h),MP-7(microSv/h),Wind Direction,Wind Velocity(m/s),Rain
2017/10/27,00:00,0.321,0.207,0.338,0.320,0.309,0.166,0.100,south,3.2,No
2017/10/27,00:10,0.322,0.208,0.337,0.320,0.309,0.166,0.100,south,4.1,No
2017/10/27,00:20,0.322,0.208,0.338,0.319,0.309,0.166,0.100,south-southwest,4.0,No
2017/10/27,00:30,0.322,0.206,0.338,0.319,0.309,0.166,0.098,south,4.1,No
2017/10/27,00:40,0.320,0.208,0.337,0.320,0.307,0.167,0.100,south-southwest,3.5,No
2017/10/27,00:50,0.322,0.208,0.337,0.320,0.308,0.167,0.100,south-southwest,3.4,No
2017/10/27,01:00,0.321,0.207,0.339,0.320,0.307,0.167,0.099,south-southwest,4.0,No
2017/10/27,01:10,0.320,0.208,0.336,0.319,0.307,0.167,0.099,south-southwest,4.9,No
2017/10/27,01:20,0.322,0.208,0.337,0.318,0.308,0.165,0.100,south-southwest,5.2,No
2017/10/27,01:30,0.321,0.207,0.338,0.319,0.309,0.167,0.100,south-southwest,5.0,No
2017/10/27,01:40,0.321,0.208,0.338,0.319,0.307,0.166,0.099,south-southwest,4.0,No
2017/10/27,01:50,0.321,0.209,0.337,0.320,0.307,0.167,0.100,southwest,4.0,No
2017/10/27,02:00,0.322,0.207,0.337,0.319,0.308,0.166,0.099,southwest,3.9,No
2017/10/27,02:10,0.321,0.206,0.339,0.319,0.307,0.166,0.099,west-southwest,2.9,No
2017/10/27,02:20,0.322,0.208,0.337,0.318,0.309,0.167,0.099,southwest,2.1,No
2017/10/27,02:30,0.322,0.207,0.338,0.319,0.306,0.166,0.100,southwest,1.5,No
2017/10/27,02:40,0.321,0.207,0.337,0.319,0.309,0.167,0.100,west-southwest,1.0,No
2017/10/27,02:50,0.322,0.208,0.337,0.319,0.309,0.165,0.099,north,1.1,No
2017/10/27,03:00,0.323,0.207,0.337,0.319,0.308,0.167,0.100,north,1.1,No
2017/10/27,03:10,0.321,0.206,0.338,0.320,0.310,0.167,0.099,north-northeast,1.0,No
2017/10/27,03:20,0.321,0.207,0.338,0.319,0.307,0.166,0.099,north-northeast,1.5,No
2017/10/27,03:30,0.321,0.208,0.336,0.321,0.307,0.166,0.099,north-northeast,1.4,No
2017/10/27,03:40,0.322,0.207,0.339,0.321,0.309,0.167,0.099,north-northeast,1.4,No
2017/10/27,03:50,0.322,0.207,0.338,0.319,0.308,0.167,0.100,north,1.4,No
2017/10/27,04:00,0.321,0.208,0.337,0.319,0.308,0.166,0.099,north-northeast,2.4,No
2017/10/27,04:10,0.321,0.208,0.339,0.320,0.310,0.167,0.099,north-northeast,1.2,No
2017/10/27,04:20,0.321,0.207,0.338,0.319,0.309,0.167,0.099,north-northeast,1.1,No
2017/10/27,04:30,0.322,0.209,0.337,0.318,0.308,0.168,0.099,east,1.0,No
2017/10/27,04:40,0.321,0.208,0.338,0.320,0.309,0.167,0.099,east,1.7,No
2017/10/27,04:50,0.322,0.208,0.337,0.319,0.309,0.166,0.100,east,1.3,No
2017/10/27,05:00,0.323,0.207,0.337,0.320,0.307,0.167,0.100,east,0.8,No
2017/10/27,05:10,0.320,0.208,0.339,0.319,0.308,0.167,0.099,northeast,0.8,No
2017/10/27,05:20,0.322,0.208,0.338,0.320,0.308,0.166,0.099,east-northeast,1.7,No
2017/10/27,05:30,0.322,0.208,0.336,0.320,0.308,0.167,0.101,northeast,1.9,No
2017/10/27,05:40,0.322,0.207,0.338,0.320,0.310,0.166,0.100,north-northeast,2.1,No
2017/10/27,05:50,0.322,0.208,0.338,0.320,0.309,0.167,0.100,north-northeast,2.6,No
2017/10/27,06:00,0.322,0.206,0.338,0.320,0.308,0.167,0.100,north-northeast,2.4,No
2017/10/27,06:10,0.320,0.207,0.337,0.320,0.309,0.166,0.100,north,3.0,No
2017/10/27,06:20,0.320,0.209,0.339,0.319,0.307,0.166,0.100,north-northeast,3.3,No
2017/10/27,06:30,0.322,0.207,0.337,0.319,0.309,0.167,0.100,north,3.0,No
2017/10/27,06:40,0.321,0.208,0.338,0.320,0.309,0.166,0.100,north-northeast,3.7,No
2017/10/27,06:50,0.321,0.207,0.338,0.321,0.307,0.167,0.098,north,3.0,No
2017/10/27,07:00,0.321,0.206,0.337,0.319,0.310,0.166,0.100,north,1.8,No
2017/10/27,07:10,0.321,0.207,0.338,0.317,0.308,0.166,0.100,north,1.9,No
2017/10/27,07:20,0.322,0.208,0.339,0.319,0.309,0.166,0.099,north,1.5,No
2017/10/27,07:30,0.321,0.208,0.338,0.320,0.309,0.167,0.100,north,1.7,No
2017/10/27,07:40,0.322,0.207,0.337,0.319,0.308,0.166,0.099,north-northwest,2.0,No
2017/10/27,07:50,0.322,0.207,0.339,0.318,0.309,0.166,0.100,north-northwest,2.9,No
2017/10/27,08:00,0.322,0.207,0.337,0.317,0.310,0.167,0.099,north,2.3,No
2017/10/27,08:10,0.322,0.206,0.337,0.318,0.307,0.167,0.100,north-northwest,2.4,No
2017/10/27,08:20,0.321,0.206,0.338,0.318,0.309,0.167,0.098,north-northwest,2.9,No
2017/10/27,08:30,0.320,0.208,0.335,0.319,0.308,0.167,0.100,north-northwest,1.8,No
2017/10/27,08:40,0.320,0.207,0.339,0.318,0.310,0.165,0.099,north-northwest,1.7,No
2017/10/27,08:50,0.320,0.208,0.337,0.317,0.307,0.164,0.098,north,2.4,No
2017/10/27,09:00,0.323,0.207,0.337,0.316,0.310,0.166,0.099,north,1.3,No
2017/10/27,09:10,0.320,0.208,0.337,0.316,0.307,0.166,0.098,northeast,1.0,No
2017/10/27,09:20,0.322,0.207,0.336,0.320,0.310,0.166,0.098,-,CALM,No
2017/10/27,09:30,0.318,0.207,0.337,0.317,0.308,0.166,0.100,northeast,0.8,No
2017/10/27,09:40,0.321,0.207,0.337,0.319,0.310,0.166,0.100,east-northeast,1.3,No
2017/10/27,09:50,0.319,0.206,0.337,0.319,0.309,0.167,0.099,east-northeast,1.1,No
2017/10/27,10:00,0.317,0.208,0.336,0.316,0.304,0.165,0.099,east-northeast,1.5,No
2017/10/27,10:10,0.323,0.206,0.338,0.317,0.310,0.166,0.100,east-northeast,1.2,No
2017/10/27,10:20,0.319,0.206,0.337,0.321,0.309,0.166,0.099,northeast,1.4,No
2017/10/27,10:30,0.317,0.208,0.336,0.317,0.306,0.166,0.100,northeast,2.0,No
2017/10/27,10:40,0.322,0.206,0.338,0.317,0.310,0.167,0.099,northeast,1.8,No
2017/10/27,10:50,0.320,0.208,0.336,0.322,0.308,0.167,0.100,east-northeast,2.2,No
2017/10/27,11:00,0.318,0.206,0.338,0.318,0.306,0.167,0.099,northeast,2.4,No
2017/10/27,11:10,0.321,0.207,0.335,0.316,0.311,0.167,0.099,northeast,2.4,No
2017/10/27,11:20,0.320,0.208,0.339,0.319,0.308,0.166,0.099,east-northeast,2.2,No
2017/10/27,11:30,0.318,0.207,0.337,0.320,0.306,0.167,0.099,east-northeast,1.6,No
2017/10/27,11:40,0.322,0.207,0.337,0.318,0.310,0.167,0.099,northeast,2.1,No
2017/10/27,11:50,0.321,0.209,0.337,0.317,0.310,0.167,0.101,northeast,2.2,No
2017/10/27,12:00,0.320,0.206,0.334,0.320,0.309,0.166,0.100,east-northeast,2.2,No
2017/10/27,12:10,0.322,0.208,0.338,0.321,0.308,0.166,0.099,northeast,2.7,No
2017/10/27,12:20,0.319,0.207,0.335,0.319,0.311,0.167,0.099,northeast,2.3,No
2017/10/27,12:30,0.321,0.205,0.332,0.316,0.308,0.167,0.099,northeast,2.8,No
2017/10/27,12:40,0.323,0.209,0.339,0.321,0.306,0.167,0.099,east-northeast,2.6,No
2017/10/27,12:50,0.318,0.208,0.337,0.320,0.310,0.167,0.100,northeast,2.7,No
2017/10/27,13:00,0.322,0.207,0.335,0.319,0.310,0.166,0.099,northeast,3.0,No
2017/10/27,13:10,0.322,0.207,0.335,0.317,0.307,0.168,0.099,northeast,2.0,No
2017/10/27,13:20,0.324,0.207,0.338,0.318,0.308,0.167,0.100,east-northeast,1.8,No
2017/10/27,13:30,0.322,0.206,0.337,0.320,0.310,0.167,0.099,east-northeast,2.3,No
2017/10/27,13:40,0.322,0.208,0.334,0.320,0.307,0.167,0.099,northeast,1.7,No
2017/10/27,13:50,0.321,0.208,0.339,0.318,0.307,0.167,0.099,north-northeast,1.2,No
2017/10/27,14:00,0.321,0.207,0.337,0.320,0.311,0.167,0.099,east-northeast,1.9,No
2017/10/27,14:10,0.322,0.209,0.338,0.319,0.308,0.167,0.099,northeast,1.3,No
2017/10/27,14:20,0.321,0.206,0.339,0.318,0.310,0.166,0.100,northeast,1.7,No
2017/10/27,14:30,0.323,0.207,0.338,0.323,0.311,0.166,0.099,east-northeast,1.0,No
2017/10/27,14:40,0.320,0.207,0.339,0.320,0.310,0.167,0.099,east-northeast,1.6,No
2017/10/27,14:50,0.321,0.208,0.337,0.323,0.312,0.166,0.100,east-northeast,1.2,No
2017/10/27,15:00,0.320,0.207,0.340,0.319,0.309,0.166,0.100,northeast,1.8,No
2017/10/27,15:10,0.323,0.209,0.339,0.322,0.312,0.167,0.100,northeast,2.0,No
2017/10/27,15:20,0.321,0.208,0.340,0.321,0.309,0.166,0.099,east,1.0,No
2017/10/27,15:30,0.324,0.207,0.338,0.322,0.313,0.167,0.101,east,1.2,No
2017/10/27,15:40,0.322,0.208,0.339,0.320,0.310,0.166,0.099,east,1.2,No
2017/10/27,15:50,0.321,0.208,0.337,0.322,0.311,0.167,0.099,east,1.2,No
2017/10/27,16:00,0.322,0.209,0.339,0.319,0.310,0.167,0.099,east-southeast,1.3,No
2017/10/27,16:10,0.322,0.208,0.337,0.322,0.313,0.167,0.099,east-southeast,1.3,No
2017/10/27,16:20,0.322,0.209,0.338,0.319,0.308,0.166,0.099,-,CALM,No
2017/10/27,16:30,0.320,0.208,0.339,0.323,0.312,0.168,0.100,east-southeast,0.8,No
2017/10/27,16:40,0.323,0.208,0.337,0.321,0.308,0.168,0.100,-,CALM,No
2017/10/27,16:50,0.321,0.207,0.339,0.320,0.311,0.167,0.099,-,CALM,No
2017/10/27,17:00,0.322,0.206,0.337,0.321,0.308,0.168,0.099,-,CALM,No
2017/10/27,17:10,0.321,0.208,0.340,0.320,0.311,0.167,0.099,-,CALM,No
2017/10/27,17:20,0.321,0.208,0.337,0.322,0.310,0.167,0.099,-,CALM,No
2017/10/27,17:30,0.322,0.209,0.338,0.319,0.310,0.167,0.099,south-southwest,0.7,No
2017/10/27,17:40,0.321,0.207,0.338,0.322,0.310,0.167,0.099,-,CALM,No
2017/10/27,17:50,0.322,0.208,0.338,0.320,0.309,0.166,0.099,south-southwest,0.6,No
2017/10/27,18:00,0.321,0.208,0.337,0.321,0.310,0.167,0.100,-,CALM,No
2017/10/27,18:10,0.322,0.208,0.337,0.321,0.308,0.168,0.099,-,CALM,No
2017/10/27,18:20,0.321,0.208,0.338,0.320,0.310,0.166,0.099,-,CALM,No
2017/10/27,18:30,0.323,0.208,0.338,0.323,0.308,0.168,0.100,-,CALM,No
2017/10/27,18:40,0.320,0.207,0.338,0.319,0.312,0.166,0.100,north,0.8,No
2017/10/27,18:50,0.322,0.210,0.340,0.321,0.309,0.167,0.099,north-northeast,1.4,No
2017/10/27,19:00,0.323,0.207,0.336,0.320,0.311,0.167,0.100,north,1.4,No
2017/10/27,19:10,0.321,0.208,0.338,0.321,0.310,0.168,0.100,north,1.2,No
2017/10/27,19:20,0.324,0.207,0.338,0.322,0.311,0.166,0.099,north,1.8,No
2017/10/27,19:30,0.321,0.208,0.339,0.320,0.310,0.167,0.100,north,1.8,No
2017/10/27,19:40,0.323,0.208,0.338,0.322,0.307,0.167,0.099,north,2.1,No
2017/10/27,19:50,0.322,0.208,0.339,0.321,0.312,0.168,0.099,north,1.7,No
2017/10/27,20:00,0.322,0.208,0.340,0.319,0.310,0.168,0.100,north,1.7,No
2017/10/27,20:10,0.322,0.209,0.337,0.321,0.310,0.168,0.100,north,1.6,No
2017/10/27,20:20,0.321,0.209,0.338,0.320,0.310,0.168,0.100,north,2.4,No
2017/10/27,20:30,0.322,0.208,0.339,0.321,0.310,0.168,0.099,north,2.1,No
2017/10/27,20:40,0.322,0.208,0.339,0.322,0.311,0.168,0.099,north-northwest,1.9,No
2017/10/27,20:50,0.322,0.207,0.340,0.320,0.309,0.168,0.100,north-northwest,0.8,No
2017/10/27,21:00,0.322,0.207,0.337,0.322,0.312,0.166,0.100,-,CALM,No
2017/10/27,21:10,0.318,0.209,0.338,0.320,0.308,0.167,0.100,-,CALM,No
2017/10/27,21:20,0.323,0.208,0.339,0.322,0.311,0.167,0.100,north-northeast,0.9,No
2017/10/27,21:30,0.321,0.208,0.338,0.320,0.309,0.166,0.100,north,1.1,No
2017/10/27,21:40,0.322,0.208,0.338,0.320,0.310,0.167,0.101,north-northeast,1.2,No
2017/10/27,21:50,0.323,0.208,0.338,0.320,0.311,0.167,0.099,north-northeast,1.8,No
2017/10/27,22:00,0.322,0.209,0.339,0.320,0.309,0.166,0.099,north-northeast,1.4,No
2017/10/27,22:10,0.321,0.209,0.338,0.321,0.313,0.168,0.100,north-northeast,1.5,No
2017/10/27,22:20,0.321,0.207,0.338,0.320,0.308,0.168,0.099,north-northeast,1.2,No
2017/10/27,22:30,0.323,0.207,0.340,0.321,0.311,0.167,0.100,north,1.3,No
2017/10/27,22:40,0.321,0.207,0.337,0.321,0.308,0.167,0.099,north,1.7,No
2017/10/27,22:50,0.322,0.209,0.340,0.319,0.312,0.166,0.100,north,2.8,No
2017/10/27,23:00,0.323,0.209,0.338,0.321,0.311,0.167,0.100,north,3.8,No
2017/10/27,23:10,0.321,0.208,0.339,0.320,0.309,0.168,0.099,north,3.9,No
2017/10/27,23:20,0.321,0.209,0.340,0.322,0.312,0.168,0.100,north,4.0,No
2017/10/27,23:30,0.322,0.208,0.339,0.321,0.310,0.168,0.100,north,3.6,No
2017/10/27,23:40,0.324,0.208,0.339,0.320,0.311,0.168,0.100,north,3.9,No
2017/10/27,23:50,0.322,0.209,0.339,0.321,0.310,0.167,0.101,north,4.3,No
